Погода в Павлодаре

Погода в Павлодаре : погода сейчас, прогноз погоды и архив. Всё, что Вы хотите узнать о погоде в Павлодаре!

Поиск расширенной информации на нашем сайте:

Другие новости

Новости СМИ2

Главная страница сайта

Новости сайта

03.07.2017

Напоминаем, что на нашем специализированном сайте Метеоцентр.Азия вы можете получить высокодетализированные автоматические прогнозы погоды по пунктам России, СНГ и мира в авиационном формате (включающие направление и скорость ветра, видимость, явления погоды, количество и форму облачности, нижнюю и верхнюю границу облачности).

Рекомендуем: http://vengriya-opt.com.ua/ купить нижнее белье оптом.

Погода в Павлодаре - сегодня

Время (UTC), дата Ветер
(°,м/с) 
Видим.   Явления Облачность Т
(°С)
Тd
(°С)
f(%) Тe
(°С)
Pmin
(гПа)
dP
(гПа)
Po
(мм)
O2
(г/м3)
Тmin Tmax R s Состояние
почвы
18 13.08.18 тихо ()   20000 м    3/0 верхняя 
[Ci fib]
+11.6 +8.6 82 +12  1019.6  0.7  754  290    +21.4       
21 13.08.18 тихо ()   20000 м    3/0 верхняя 
[Ci fib]
+8.6 +7.3 92 +9  1020  0.3  754  293           
00 14.08.18 030 (СВ) 20000 м    1/0 верхняя 
[Ci fib]
+7.3 +6.6 95 +8  1021.1  755  295           
06 14.08.18 260 (З) 20000 м    6/0 верхняя 
[Ci fib]
+22.4 +8.7 42 +22  1020.6  -0.3  755  280  +6.8         
09 14.08.18 270 (З) 20000 м    3/0 верхняя 
[Ci fib]
+24.6 +7.3 33 +25  1019.5  -1.1  754  278           
12 14.08.18 210 (ЮЗ) 20000 м    1/0 верхняя 
[Ci fib]
+25.5 +7.9 33 +26  1018.8  -0.6  754  276           
15 14.08.18 тихо ()   20000 м    ясно 
+18.4 +10.4 60 +20  1018.6  -0.5  753  283    +26       
18 14.08.18 090 (В) 20000 м    ясно 
+14.3 +9.4 72 +16  1018.9  -0.1  753  287    +26       
21 14.08.18 120 (ЮВ) 20000 м    ясно 
+12.6 +9.2 80 +14  1018.6  -0.4  753  288           
00 15.08.18 тихо ()   20000 м    ясно 
+12 +9.4 84 +12  1018.4  -0.3  753  289           
06 15.08.18 170 (Ю) 20000 м    ясно 
+25.2 +9 36 +25  1016.3  -1.2  752  276  +10.9         
09 15.08.18 170 (Ю) 20000 м    3/0 верхняя 
[Ci fib]
+27.4 +5.6 25 +27  1014.5  -1.7  751  274           
12 15.08.18 150 (ЮВ) 20000 м    6/0 верхняя 
[Ci fib]
+26.3 +6.8 29 +26  1013.5  -1.1  750  275           
15 15.08.18 130 (ЮВ) 20000 м    4/0 верхняя 
[Ci fib]
+19.8 +7.8 46 +21  1013.5  -0.3  750  280    +27.7       
18 15.08.18 140 (ЮВ) 20000 м    ясно 
+17.2 +7.2 52 +19  1012.5  -1.1  749  283    +27.7       
21 15.08.18 140 (ЮВ) 20000 м    ясно 
+14.7 +7.4 62 +16  1011.6  -0.9  748  285           
00 16.08.18 тихо ()   20000 м    ясно 
+11.9 +8.3 79 +12  1011.5  -0.3  748  287           
06 16.08.18 170 (Ю) 20000 м    5/0 средняя, верхняя 
[Ac trans|Ci fib]
+29.8 +4.9 21 +30  1009.2  -1.3  747  271  +11.9         
09 16.08.18 110 (В) 20000 м    8/0 средняя, верхняя 
[Ac trans|Ci fib]
+31.4 +4.1 18 +31  1007.7  -1.4  746  269           
15 16.08.18 090 (В) 20000 м    9/8 1000 м кучево-дожд., средняя 
[Cb cap|Ac trans]
+26.2 +6.4 28 +26  1006.5  -0.3  745  273    +32.1       
21 16.08.18 320 (СЗ) 20000 м    9/6 1000 м кучево-дожд., средняя 
[Cb cap|Ac trans]
+18.5 +12.8 69 +24  1006.6  -1  744  278           
09 17.08.18 340 (С) 20000 м    6/5 1000 м кучево-дожд., средняя 
[Cb cap|Ac trans]
+30 +7.1 24 +30  1008.2  0.3  746  270           
15 17.08.18 330 (СЗ) 20000 м    4/3 1000 м кучево-дожд., средняя, верхняя 
[Cb cap|Ac trans|Ci fib]
+24.1 +11.3 45 +27  1010.8  748  275    +31       
21 17.08.18 300 (СЗ) 20000 м    3/0 верхняя 
[Ci fib]
+16.2 +12 76 +22  1012.6  0.4  749  283           
09 18.08.18 320 (СЗ) 20000 м    3/1 600 м верхняя 
[Cu hum|Ci fib]
+29.4 +10.7 31 +32  1011.5  -1.3  749  270           
Время (UTC), дата Ветер
(°,м/с) 
Видим.   Явления Облачность Т
(°С)
Тd
(°С)
f(%) Тe
(°С)
Pmin
(гПа)
dP
(гПа)
Po
(мм)
O2
(г/м3)
Тmin Tmax R s Состояние
почвы

Для получения пояснительной информации подведите курсор к названию столбца.

ПОГОДА в Павлодаре - архив

Всё, что Вы хотите узнать о погоде в Павлодаре - удобно и подробно!

Выберите нужную дату (начиная с 1 января 2015* года) и нажмите кнопку "Найти".
Будут отображены архивные сводки погоды по пункту Павлодар, начиная с указанной даты.


Отображать данные в формате CSV (для использования в таблицах Excel)


Внимание! Наш архив погоды предназначен исключительно для личного некоммерческого использования в познавательных целях. Если Вам необходимы официальные справки о состоянии погоды (для производственных, юридических, коммерческих и т.п. целей), обращайтесь в органы Росгидромета.

*Примечание: данная дата относится к архиву по метеостанциям СССР (Россия, СНГ, Балтия).
Архив по метеостанциям Зарубежной Европы и Азии (кроме Китая) хранится 10 дней, по другим регионам земного шара (Китай, Африка, Америка, Австралия, Океания) - 1 день.

Павлодар - район местоположения метеостанции


Название, широта, долгота, высота метеостанции:
Павлодар 52.1°ш. 77.1°д. 125 м над ур. моря [Казахстан]

Дополнительная информация

В oтличие oт бoльшинства пoгoдных сайтoв мы публикуем пoдрoбную метеoинфoрмацию в детальнoм прoфессиoнальнoм фoрмате.

Характеристики температуры и влажнoсти вoздуха измеряются на высoте 2 м в тени вдали oт зданий и деревьев.
Скoрoсть ветра измеряется на высoте 10 м (на урoвне рoста челoвека скoрoсть ветра ниже в 1.5-2 раза). Если метеoстанция нахoдится в гoрoде или в лесу, тo скoрoсть ветра занижена на 2-4 м/с пo сравнению с oткрытым местoм. Скoрoсть ветра над акватoриями крупных рек и oзёр, а также на вершинах хoлмoв на 2-5 м/с выше, чем в oбычных услoвиях.
Атмoсфернoе давление в разных тoчках местнoсти мoжет значительнo oтличаться oт давления на метеoстанции, в зависимoсти oт услoвий рельефа (при пoдъёме на 10 м давление пoнижается примернo на 1 мм рт.ст.).